Location: Greenwich
(51.4790°N, 0.0090°E)
Time: 00:50:11
(UTC+01:00)

Transit 4A - Pass Details

Date: 22 April 2024
Orbit: 871 x 971 km, 66.8° (Epoch: 18 May)

Event Time Altitude Azimuth Distance (km) Brightness Sun altitude
Rises 23:35:03 0° 310° (NW) 3,470 11.9 -23.4°
Reaches altitude 10° 23:38:53 10° 285° (WNW) 2,530 10.6 -23.6°
Maximum altitude 23:41:32 13° 258° (WSW) 2,296 10.0 -23.8°
Enters shadow 23:43:56 11° 233° (SW) 2,493 10.0 -23.9°
